Location: *
(42.0175°N, 9.4056°E)
Time: 16:00:48
(UTC+00:00)

Cosmos 2292 Rocket - Pass Details

Date: 25 August 2019
Orbit: 379 x 1458 km, 83.0° (Epoch: 23 September)

Event Time Altitude Azimuth Distance (km) Brightness Sun altitude
Rises 18:49:46 0° 349° (N) 3,100 7.7 -8.1°
Reaches altitude 10° 18:52:22 10° 346° (NNW) 2,006 6.7 -8.6°
Maximum altitude 18:56:35 57° 268° (W) 611 3.9 -9.3°
Drops below altitude 10° 18:59:53 10° 188° (S) 1,571 5.5 -9.9°
Sets 19:01:43 0° 184° (S) 2,358 6.3 -10.2°
